Regional Weather Roundup
Issued by NWS

Home | Current Version | Previous Version | Graphics & Text | Print | Product List | Glossary Off
Versions: 1 2 3 4 5 6 7 8 9 10 11 12 13 14 15 16 17 18 19 20 21 22 23 24 25 26 27 28 29 30 31 32 33 34 35 36 37 38 39 40 41 42 43 44 45 46 47 48 49 50

000
ASUS43 KMKX 132110
RWRWI

WISCONSIN REGIONAL WEATHER ROUNDUP
NATIONAL WEATHER SERVICE MILWAUKEE/SULLIVAN WI
300 PM CST WED DEC 13 2017

NOTE: "FAIR" INDICATES FEW OR NO CLOUDS BELOW 12,000 FEET WITH NO
SIGNIFICANT WEATHER AND/OR OBSTRUCTIONS TO VISIBILITY.

WIZ001-002-006>008-014>016-023>028-132200-
NORTHWEST WISCONSIN

CITY           SKY/WX    TMP DP  RH WIND       PRES   REMARKS
SUPERIOR ARPT  LGT SNOW  26  21  83 NE13      29.70R WCI  14
ASHLAND        LGT SNOW  21  16  81 NE7       29.68R WCI  12
HAYWARD        LGT SNOW  18  11  74 NE14      29.64R WCI   4
SIREN          CLOUDY    24  18  75 N12       29.66R WCI  13
CUMBERLAND     CLOUDY    21  12  68 N16       29.61R WCI   7
RICE LAKE      FLURRIES  21  14  75 N12       29.62R WCI   9
CHETEK         CLOUDY    20  14  78 N7        29.61R WCI  11
LADYSMITH      LGT SNOW  19  14  79 N12       29.59R WCI   7
EAU CLAIRE     CLOUDY    21  14  74 N12       29.59R WCI   9
MENOMONIE      CLOUDY    23  15  71 NW18G24   29.60R WCI   9
NEW RICHMOND   CLOUDY    24  18  78 N15       29.64R WCI  11
OSCEOLA        CLOUDY    25  19  77 NW13      29.69R WCI  13
$$

WIZ003>005-009-010-017-018-132200-
NORTH CENTRAL WISCONSIN

CITY           SKY/WX    TMP DP  RH WIND       PRES   REMARKS
MANITOWISH WTR LGT SNOW  15  13  91 NE7       29.57R WCI   5
ARBOR VITAE    LGT SNOW  17  13  85 N10       29.55R WCI   4
WOODRUFF       LGT SNOW  17  13  85 N10       29.55R WCI   4
RHINELANDER    LGT SNOW  17  14  88 NE10G18   29.52R VSB 1   WCI   5
EAGLE RIVER    LGT SNOW  17  12  82 NE12G17   29.53R WCI   4
LAND O LAKES   LGT SNOW  17  13  86 N8        29.56R WCI   6
PHILLIPS       LGT SNOW  16  13  89 N13       29.55R WCI   2
TOMAHAWK       LGT SNOW  17  13  84 N6        29.53R WCI   9
MEDFORD        LGT SNOW  17  14  86 N13       29.50R WCI   4
MERRILL        LGT SNOW  19  15  85 N12       29.51R WCI   7
$$

WIZ029-030-035-036-043>047-132200-
CENTRAL WISCONSIN

CITY           SKY/WX    TMP DP  RH WIND       PRES   REMARKS
WAUSAU         LGT SNOW  20  17  88 N9        29.46R VSB 1   WCI   9
MOSINEE        LGT SNOW  19  18  93 N16       29.47R WCI   5
MARSHFIELD     LGT SNOW  19  15  84 N12       29.49R VSB 1   WCI   7
STEVENS POINT  MIX PCPN  20  19  94 N12G17    29.45R WCI   8
WAUPACA        LGT SNOW  27  23  85 NW12      29.41R VSB 3/4 WCI  16
WAUTOMA        FLURRIES  23  18  80 NW12      29.43R WCI  12
WISC RAPIDS    FLURRIES  21  16  81 N16G23    29.48R WCI   7
CAMP DOUGLAS   FLURRIES  23  14  68 NW17G28   29.48R WCI   9
$$

WIZ011>013-019>022-031-037>040-048>050-132200-
NORTHEAST WISCONSIN

CITY           SKY/WX    TMP DP  RH WIND       PRES   REMARKS
ANTIGO         LGT SNOW  18  15  87 NE13G18   29.47R WCI   5
SHAWANO        LGT SNOW  28  24  86 NE18      29.44R WCI  15
OCONTO         CLOUDY    26  23  91 NE13G20   29.47R VSB 1/2 WCI  14
STURGEON BAY   SNOW      25  21  86 NE14G22   29.47R VSB 1/2 WCI  13
GREEN BAY      LGT SNOW  27  23  85 NE20      29.42R VSB 3/4 WCI  13
MANITOWOC      LGT SNOW  27  23  86 E10       29.39R VSB 3/4 WCI  17
APPLETON       LGT SNOW  27  21  80 NE17G23   29.35R WCI  14
CLINTONVILLE   LGT SNOW  27  23  86 NE15G25   29.41R WCI  15
OSHKOSH        LGT SNOW  26  23  88 NW13      29.34R VSB 1   WCI  15
$$

WIZ032>034-041-042-053>061-132200-
SOUTHWEST WISCONSIN

CITY           SKY/WX    TMP DP  RH WIND       PRES   REMARKS
LA CROSSE      CLOUDY    26  19  74 NW17      29.55R WCI  13
SPARTA         CLOUDY    23  18  81 NW16      29.53R WCI  10
VIROQUA        CLOUDY    24  20  87 NW24G33   29.48R WCI   8
BOSCOBEL       CLOUDY    30  21  69 NW15G24   29.50R WCI  19
PRAIRIE DU CHI CLOUDY    29  20  70 NW22G30   29.52R WCI  15
PLATTEVILLE    CLOUDY    31  25  76 NW24      29.45R WCI  18
$$

WIZ056-057-062-063-064-067-068-132200-
SOUTH CENTRAL WISCONSIN

CITY           SKY/WX    TMP DP  RH WIND       PRES   REMARKS
REEDSBURG      MIX PCPN  24  18  76 NW14G22   29.43R WCI  12
BARABOO/DELLS  CLOUDY    23  17  77 NW17G24   29.42R WCI  10
LONE ROCK      CLOUDY    28  20  71 NW20G30   29.47R WCI  15
MINERAL POINT  CLOUDY    32  23  69 NW22G33   29.42R WCI  19
MADISON        FLURRIES  27  20  75 NW17G26   29.38R WCI  14
MIDDLETON      CLOUDY    29  22  75 NW22G29   29.39R WCI  16
WATERTOWN      LGT SNOW  28  26  90 NW14      29.34R WCI  17
MONROE         CLOUDY    32  23  69 NW21G30   29.36R WCI  20
JANESVILLE     LGT SNOW  34  23  64 NW29      29.33R WCI  20
$$

WIZ051-052-058>065-066-070>072-132200-
SOUTHEAST WISCONSIN

CITY           SKY/WX    TMP DP  RH WIND       PRES   REMARKS
MILWAUKEE      LGT SNOW  31  28  89 NW7       29.29R FOG     WCI  24
WAUKESHA       CLOUDY    27  25  93 NW16G22   29.31R FOG     WCI  14
MILWAUKEE/TIMM LGT SNOW  28  25  86 NW6       29.31R WCI  22
RACINE         CLOUDY    30  28  92 NW8       29.31R WCI  22
BURLINGTON       N/A    N/A N/A N/A MISG        N/A
KENOSHA        CLOUDY    33  26  75 NW9       29.29R WCI  25
FOND DU LAC    LGT SNOW  27  22  81 NW13      29.35R WCI  16
SHEBOYGAN      LGT SNOW  28  26  92 N9        29.31R FOG     WCI  19
WEST BEND      FLURRIES  28  27  93 NW9       29.31R WCI  20
JUNEAU         LGT SNOW  26  22  87 NW12G18   29.36R WCI  15
$$

LSZ147-162-132200-
LAKE SUPERIOR

STATION/POSITION TIME  TEMP    WIND        PRES    WAVE
                       AIR SEA DIR/SP/G            HT/PER
                 (UTC) (F)     (DEG/KT/KT) (MB)    (FT/S)
DEVILS ISLAND    2100   25      40/ 31/ 35 1006.8R
SAXON HARBOR     2030   21                 1004.1R
$$

LMZ867-665-643>646-132200-
LAKE MICHIGAN

STATION/POSITION TIME  TEMP    WIND        PRES    WAVE
                       AIR SEA DIR/SP/G            HT/PER
                 (UTC) (F)     (DEG/KT/KT) (MB)    (FT/S)
NORTHPORT PIER   2046   25      60/ 23      999.7R
KEWAUNEE LAKESHO 2042   26      90/ 16/ 21  995.3R
SHEBOYGAN LAKESH 2100   27      80/ 28/ 32  993.5R
PORT WASHINGTON  2040   29     350/  4/  5  993.6R
MILWAUKEE LAKESH 2050   29     320/  5/  8   N/A
KENOSHA   LAKESH 2100   32     310/ 12/ 15  992.6
$$

TC  - TEMPERATURE IN CELSIUS
VSB - VISIBILITY IN STATUTE MILES
WCI - WIND CHILL INDEX
HX  - HEAT INDEX




USA.gov is the U.S. government's official web portal to all federal, state and local government web resources and services.